Flag for Canada Weather past 2 weeks in Vaughan, Ontario, Canada

Now
59 °F

Fog.


Feels Like: 58 °F
Forecast: 50 / 72 °F
Wind: 7 mph from South

Location: Toronto Buttonville

Current Time: Sep 20, 2014 at 10:37:24 AM

Latest Report: Sep 20, 2014 at 9:00 AM


Visibility: 6 mi

Pressure: 30.01 "Hg

Humidity: 94%

Dew point: 57 °F

Location of VaughanLocation

Historic Weather in Vaughan — Graph

°F

Vaughan temperature yesterday

Maximum temperature yesterday: 55 °F (at 1:00 PM)
Minimum temperature yesterday: 37 °F (at 6:00 AM)
Average temperature yesterday: 47 °F

Past Weeks' High & Low Weather Summary

 TemperatureHumidityPressure
High86 °F (Sep 5, 3:00 PM)100% (Sep 6, 3:00 AM)30.37 "Hg (Sep 6, 3:00 AM)
Low37 °F (Sep 19, 6:00 AM)40% (Sep 6, 5:00 PM)29.52 "Hg (Sep 11, 4:00 AM)
Average58 °F77%30.10 "Hg
* Reported Sep 5 9:00 AM — Sep 20 9:00 AM, Vaughan, Weather by CustomWeather, © 2014

Note: Actual official high and low records may vary slightly from our data, if they occured in-between our weather recording intervals... More about our weather records

Advertising

Vaughan weather history for previous 24 hours

 ConditionsComfort  
Time TempWeatherWind HumidityBarometerVisibility
9:00 AM
Sep 20
59 °FFog.7 mph94%30.01 "Hg6 mi
8:00 AM50 °FFog.No wind100%30.02 "Hg6 mi
7:00 AM46 °FPassing clouds.No wind100%30.03 "Hg12 mi
6:00 AM46 °FPassing clouds.No wind100%30.03 "Hg15 mi
5:00 AM46 °FPassing clouds.2 mph93%30.04 "Hg15 mi
4:00 AM46 °FPassing clouds.2 mph93%30.04 "Hg15 mi
3:00 AM45 °FPassing clouds.No wind93%30.06 "Hg15 mi
2:00 AM45 °FPassing clouds.No wind93%30.07 "Hg15 mi
1:00 AM46 °FPassing clouds.2 mph93%30.09 "Hg15 mi
12:00 AM45 °FPassing clouds.No wind93%30.09 "Hg15 mi
11:00 PM
Sep 19
48 °FPassing clouds.3 mph87%30.12 "Hg15 mi
10:00 PM50 °FPassing clouds.3 mph88%30.14 "Hg15 mi
9:00 PM48 °FClear.5 mph87%30.16 "Hg15 mi
8:00 PM50 °FPassing clouds.5 mph76%30.20 "Hg15 mi
7:00 PM52 °FScattered clouds.8 mph72%30.20 "Hg15 mi
6:00 PM54 °FPartly sunny.9 mph67%30.24 "Hg15 mi
5:00 PM54 °FPartly sunny.9 mph67%30.26 "Hg15 mi
4:00 PM55 °FPartly sunny.8 mph63%30.25 "Hg15 mi
3:00 PM55 °FPartly sunny.12 mph63%30.28 "Hg15 mi
2:00 PM55 °FBroken clouds.14 mph67%30.31 "Hg15 mi
1:00 PM55 °FScattered clouds.12 mph63%30.34 "Hg15 mi
12:00 PM54 °FPartly sunny.9 mph67%30.36 "Hg15 mi
11:00 AM52 °FPartly sunny.12 mph72%30.36 "Hg15 mi
10:00 AM48 °FPartly sunny.9 mph76%30.37 "Hg15 mi
Weather by CustomWeather, © 2014

See weather overviewHow to use our weather pages